NETSAT-2

Last updated on Wed Oct 29 2025 00:03:53 GMT+0000 (Coordinated Universal Time)

1 46507U 20068X 25301.48667495 .00023913 00000+0 70798-3 0 9999 2 46507 97.8597 287.2151 0007928 94.3533 265.8615 15.34857402280066
UTC large
Height (km)
Speed (km/s)
/
Latitude / Longitude
Inclination (degrees)
Orbital Period (minutes)
Azimuth
Elevation
Range (km)
Doppler Factor

Next 0 passes for location: London (51.5072 / 0.1276)

Sorry there are no passes over London.